Time,TemperatureF,DewpointF,PressureIn,WindDirection,WindDirectionDegrees,WindSpeedMPH,WindSpeedGustMPH,Humidity,HourlyPrecipIn,Conditions,Clouds,dailyrainin,SoftwareType,DateUTC
2013-01-29 00:01:00,67.0,61.0,29.85,West,274,2.0,-999.0,80,-99.99,,,-99.99,,2013-01-29 06:01:00,
2013-01-29 00:11:00,67.0,61.0,29.85,West,274,2.0,-999.0,80,-99.99,,,-99.99,,2013-01-29 06:11:00,
2013-01-29 00:21:00,67.0,60.0,29.85,ESE,119,1.0,-999.0,79,-99.99,,,-99.99,,2013-01-29 06:21:00,
2013-01-29 00:32:00,67.0,60.0,29.84,NE,46,1.0,-999.0,79,-99.99,,,-99.99,,2013-01-29 06:32:00,
2013-01-29 00:41:00,67.0,60.0,29.84,NE,46,1.0,-999.0,79,-99.99,,,-99.99,,2013-01-29 06:41:00,
2013-01-29 00:52:00,67.0,60.0,29.84,SE,132,1.0,-999.0,79,-99.99,,,-99.99,,2013-01-29 06:52:00,
2013-01-29 01:01:00,67.0,61.0,29.83,NE,45,1.0,-999.0,80,-99.99,,,-99.99,,2013-01-29 07:01:00,
2013-01-29 01:11:00,67.0,61.0,29.83,NE,45,1.0,-999.0,80,-99.99,,,-99.99,,2013-01-29 07:11:00,
2013-01-29 01:21:00,67.0,61.0,29.83,ENE,57,1.0,-999.0,80,-99.99,,,-99.99,,2013-01-29 07:21:00,
2013-01-29 01:31:00,67.0,60.0,29.82,West,272,2.0,-999.0,79,-99.99,,,-99.99,,2013-01-29 07:31:00,
2013-01-29 01:41:00,67.0,60.0,29.82,West,272,2.0,-999.0,79,-99.99,,,-99.99,,2013-01-29 07:41:00,
2013-01-29 01:52:00,67.0,60.0,29.82,NNW,333,1.0,-999.0,79,-99.99,,,-99.99,,2013-01-29 07:52:00,
2013-01-29 02:02:00,67.0,60.0,29.82,West,275,1.0,-999.0,79,-99.99,,,-99.99,,2013-01-29 08:02:00,
2013-01-29 02:11:00,67.0,60.0,29.82,West,275,1.0,-999.0,79,-99.99,,,-99.99,,2013-01-29 08:11:00,
2013-01-29 02:21:00,67.0,60.0,29.82,ENE,72,0.0,-999.0,79,-99.99,,,-99.99,,2013-01-29 08:21:00,
2013-01-29 02:31:00,67.0,60.0,29.82,ENE,57,1.0,-999.0,78,-99.99,,,-99.99,,2013-01-29 08:31:00,
2013-01-29 02:41:00,67.0,60.0,29.82,ENE,57,1.0,-999.0,78,-99.99,,,-99.99,,2013-01-29 08:41:00,
2013-01-29 02:52:00,67.0,60.0,29.81,ENE,58,2.0,-999.0,78,-99.99,,,-99.99,,2013-01-29 08:52:00,
2013-01-29 03:01:00,68.0,61.0,29.82,East,91,1.0,-999.0,77,-99.99,,,-99.99,,2013-01-29 09:01:00,
2013-01-29 03:11:00,68.0,61.0,29.82,East,91,1.0,-999.0,77,-99.99,,,-99.99,,2013-01-29 09:11:00,
2013-01-29 03:21:00,68.0,60.0,29.80,West,276,1.0,-999.0,76,-99.99,,,-99.99,,2013-01-29 09:21:00,
2013-01-29 03:31:00,68.0,61.0,29.80,SSE,154,1.0,-999.0,77,-99.99,,,-99.99,,2013-01-29 09:31:00,
2013-01-29 03:42:00,68.0,61.0,29.80,SSE,154,1.0,-999.0,77,-99.99,,,-99.99,,2013-01-29 09:42:00,
2013-01-29 03:52:00,68.0,61.0,29.80,WSW,248,2.0,-999.0,77,-99.99,,,-99.99,,2013-01-29 09:52:00,
2013-01-29 04:01:00,68.0,61.0,29.80,NNW,334,2.0,-999.0,77,-99.99,,,-99.99,,2013-01-29 10:01:00,
2013-01-29 04:11:00,68.0,61.0,29.80,NNW,334,2.0,-999.0,77,-99.99,,,-99.99,,2013-01-29 10:11:00,
2013-01-29 04:21:00,68.0,61.0,29.79,North,350,1.0,-999.0,77,-99.99,,,-99.99,,2013-01-29 10:21:00,
2013-01-29 04:32:00,67.0,60.0,29.78,West,269,1.0,-999.0,77,-99.99,,,-99.99,,2013-01-29 10:32:00,
2013-01-29 04:41:00,67.0,60.0,29.78,West,269,1.0,-999.0,77,-99.99,,,-99.99,,2013-01-29 10:41:00,
2013-01-29 04:52:00,67.0,60.0,29.79,NE,51,0.0,-999.0,77,-99.99,,,-99.99,,2013-01-29 10:52:00,
2013-01-29 05:01:00,67.0,60.0,29.78,NNE,23,1.0,-999.0,78,-99.99,,,-99.99,,2013-01-29 11:01:00,
2013-01-29 05:11:00,67.0,60.0,29.78,NNE,23,1.0,-999.0,78,-99.99,,,-99.99,,2013-01-29 11:11:00,
2013-01-29 05:21:00,67.0,60.0,29.78,NE,39,1.0,-999.0,78,-99.99,,,-99.99,,2013-01-29 11:21:00,
2013-01-29 05:32:00,67.0,60.0,29.78,SE,138,1.0,-999.0,78,-99.99,,,-99.99,,2013-01-29 11:32:00,
2013-01-29 05:42:00,67.0,60.0,29.78,SE,138,1.0,-999.0,78,-99.99,,,-99.99,,2013-01-29 11:42:00,
2013-01-29 05:52:00,67.0,60.0,29.77,WNW,285,1.0,-999.0,78,-99.99,,,-99.99,,2013-01-29 11:52:00,
2013-01-29 06:02:00,67.0,60.0,29.77,East,92,1.0,-999.0,78,-99.99,,,-99.99,,2013-01-29 12:02:00,
2013-01-29 06:12:00,67.0,60.0,29.77,East,92,1.0,-999.0,78,-99.99,,,-99.99,,2013-01-29 12:12:00,
2013-01-29 06:22:00,67.0,60.0,29.76,NW,306,0.0,-999.0,78,-99.99,,,-99.99,,2013-01-29 12:22:00,
2013-01-29 06:32:00,66.0,60.0,29.76,NNW,346,1.0,-999.0,82,-99.99,,,-99.99,,2013-01-29 12:32:00,
2013-01-29 06:43:00,66.0,60.0,29.76,NNW,346,1.0,-999.0,82,-99.99,,,-99.99,,2013-01-29 12:43:00,
2013-01-29 06:53:00,65.0,60.0,29.76,East,84,0.0,-999.0,84,-99.99,,,-99.99,,2013-01-29 12:53:00,
2013-01-29 07:02:00,64.0,60.0,29.76,ENE,69,0.0,-999.0,87,-99.99,,,-99.99,,2013-01-29 13:02:00,
2013-01-29 07:12:00,64.0,60.0,29.76,ENE,69,0.0,-999.0,87,-99.99,,,-99.99,,2013-01-29 13:12:00,
2013-01-29 07:22:00,64.0,60.0,29.76,North,5,0.0,-999.0,88,-99.99,,,-99.99,,2013-01-29 13:22:00,
2013-01-29 07:32:00,64.0,61.0,29.76,East,89,0.0,-999.0,89,-99.99,,,-99.99,,2013-01-29 13:32:00,
2013-01-29 07:42:00,64.0,61.0,29.76,East,89,0.0,-999.0,89,-99.99,,,-99.99,,2013-01-29 13:42:00,
2013-01-29 07:52:00,64.0,61.0,29.75,NE,53,1.0,-999.0,89,-99.99,,,-99.99,,2013-01-29 13:52:00,
2013-01-29 08:02:00,64.0,61.0,29.75,NE,40,1.0,-999.0,89,-99.99,,,-99.99,,2013-01-29 14:02:00,
2013-01-29 08:12:00,64.0,60.0,29.74,NNE,30,1.0,-999.0,88,-99.99,,,-99.99,,2013-01-29 14:12:00,
2013-01-29 08:22:00,64.0,60.0,29.74,NNE,30,1.0,-999.0,88,-99.99,,,-99.99,,2013-01-29 14:22:00,
2013-01-29 08:33:00,64.0,60.0,29.73,East,86,1.0,-999.0,87,-99.99,,,-99.99,,2013-01-29 14:33:00,
2013-01-29 08:43:00,64.0,60.0,29.73,East,86,1.0,-999.0,87,-99.99,,,-99.99,,2013-01-29 14:43:00,
2013-01-29 08:53:00,64.0,60.0,29.73,ESE,108,1.0,-999.0,87,-99.99,,,-99.99,,2013-01-29 14:53:00,
2013-01-29 09:02:00,65.0,61.0,29.70,East,92,2.0,-999.0,87,-99.99,,,-99.99,,2013-01-29 15:02:00,
2013-01-29 09:12:00,65.0,61.0,29.70,East,92,2.0,-999.0,87,-99.99,,,-99.99,,2013-01-29 15:12:00,
2013-01-29 09:22:00,65.0,61.0,29.70,East,86,3.0,-999.0,86,-99.99,,,-99.99,,2013-01-29 15:22:00,
2013-01-29 09:33:00,66.0,62.0,29.70,East,91,3.0,-999.0,86,-99.99,,,-99.99,,2013-01-29 15:33:00,
2013-01-29 09:42:00,66.0,62.0,29.70,East,91,3.0,-999.0,86,-99.99,,,-99.99,,2013-01-29 15:42:00,
2013-01-29 09:53:00,66.0,62.0,29.70,SSE,163,3.0,-999.0,86,-99.99,,,-99.99,,2013-01-29 15:53:00,
2013-01-29 10:02:00,67.0,62.0,29.70,ESE,112,4.0,-999.0,84,-99.99,,,-99.99,,2013-01-29 16:02:00,
2013-01-29 10:12:00,67.0,62.0,29.70,ESE,112,4.0,-999.0,84,-99.99,,,-99.99,,2013-01-29 16:12:00,
2013-01-29 10:22:00,67.0,62.0,29.68,East,93,4.0,-999.0,84,-99.99,,,-99.99,,2013-01-29 16:22:00,
2013-01-29 10:32:00,67.0,62.0,29.68,East,93,4.0,-999.0,84,-99.99,,,-99.99,,2013-01-29 16:32:00,
2013-01-29 10:42:00,67.0,62.0,29.68,East,93,4.0,-999.0,84,-99.99,,,-99.99,,2013-01-29 16:42:00,
2013-01-29 10:53:00,67.0,62.0,29.69,SSW,192,2.0,-999.0,84,-99.99,,,-99.99,,2013-01-29 16:53:00,
2013-01-29 11:03:00,66.0,62.0,29.68,NE,38,2.0,-999.0,86,-99.99,,,-99.99,,2013-01-29 17:03:00,
2013-01-29 11:12:00,66.0,62.0,29.68,NE,38,2.0,-999.0,86,-99.99,,,-99.99,,2013-01-29 17:12:00,
2013-01-29 11:22:00,65.0,61.0,29.68,ENE,74,1.0,-999.0,87,-99.99,,,-99.99,,2013-01-29 17:22:00,
2013-01-29 11:32:00,65.0,61.0,29.68,NE,39,0.0,-999.0,88,-99.99,,,-99.99,,2013-01-29 17:32:00,
2013-01-29 11:42:00,65.0,61.0,29.68,NE,39,0.0,-999.0,88,-99.99,,,-99.99,,2013-01-29 17:42:00,
2013-01-29 11:52:00,64.0,61.0,29.66,NE,38,0.0,-999.0,89,-99.99,,,-99.99,,2013-01-29 17:52:00,
2013-01-29 12:03:00,65.0,61.0,29.63,ENE,67,2.0,-999.0,88,-99.99,,,-99.99,,2013-01-29 18:03:00,
2013-01-29 12:12:00,65.0,61.0,29.63,ENE,67,2.0,-999.0,88,-99.99,,,-99.99,,2013-01-29 18:12:00,
2013-01-29 12:22:00,66.0,62.0,29.62,WNW,293,1.0,-999.0,86,-99.99,,,-99.99,,2013-01-29 18:22:00,
2013-01-29 12:33:00,66.0,61.0,29.61,ESE,103,2.0,-999.0,84,-99.99,,,-99.99,,2013-01-29 18:33:00,
2013-01-29 12:42:00,66.0,61.0,29.61,ESE,103,2.0,-999.0,84,-99.99,,,-99.99,,2013-01-29 18:42:00,
2013-01-29 12:52:00,67.0,62.0,29.59,WNW,298,4.0,-999.0,83,-99.99,,,-99.99,,2013-01-29 18:52:00,
2013-01-29 13:02:00,67.0,61.0,29.57,NE,40,2.0,-999.0,81,-99.99,,,-99.99,,2013-01-29 19:02:00,
2013-01-29 13:12:00,67.0,61.0,29.57,NE,40,2.0,-999.0,81,-99.99,,,-99.99,,2013-01-29 19:12:00,
2013-01-29 13:22:00,67.0,61.0,29.56,ENE,62,2.0,-999.0,81,-99.99,,,-99.99,,2013-01-29 19:22:00,
2013-01-29 13:32:00,68.0,62.0,29.54,West,268,1.0,-999.0,80,-99.99,,,-99.99,,2013-01-29 19:32:00,
2013-01-29 13:42:00,68.0,62.0,29.54,West,268,1.0,-999.0,80,-99.99,,,-99.99,,2013-01-29 19:42:00,
2013-01-29 13:52:00,68.0,61.0,29.53,NNE,24,2.0,-999.0,79,-99.99,,,-99.99,,2013-01-29 19:52:00,
2013-01-29 14:02:00,68.0,61.0,29.51,ESE,116,4.0,-999.0,79,-99.99,,,-99.99,,2013-01-29 20:02:00,
2013-01-29 14:12:00,68.0,61.0,29.51,ESE,116,4.0,-999.0,79,-99.99,,,-99.99,,2013-01-29 20:12:00,
2013-01-29 14:22:00,68.0,61.0,29.51,WNW,284,2.0,-999.0,79,-99.99,,,-99.99,,2013-01-29 20:22:00,
2013-01-29 14:33:00,68.0,61.0,29.50,NNE,19,1.0,-999.0,79,-99.99,,,-99.99,,2013-01-29 20:33:00,
2013-01-29 14:42:00,68.0,61.0,29.50,NNE,19,1.0,-999.0,79,-99.99,,,-99.99,,2013-01-29 20:42:00,
2013-01-29 14:53:00,68.0,61.0,29.50,West,280,3.0,-999.0,79,-99.99,,,-99.99,,2013-01-29 20:53:00,
2013-01-29 15:02:00,68.0,61.0,29.49,WSW,238,3.0,-999.0,78,-99.99,,,-99.99,,2013-01-29 21:02:00,
2013-01-29 15:12:00,68.0,61.0,29.49,WSW,238,3.0,-999.0,78,-99.99,,,-99.99,,2013-01-29 21:12:00,
2013-01-29 15:22:00,67.0,61.0,29.48,ESE,111,2.0,-999.0,82,-99.99,,,-99.99,,2013-01-29 21:22:00,
2013-01-29 15:33:00,66.0,61.0,29.48,SSE,166,2.0,-999.0,85,-99.99,,,-99.99,,2013-01-29 21:33:00,
2013-01-29 15:42:00,66.0,61.0,29.48,SSE,166,2.0,-999.0,85,-99.99,,,-99.99,,2013-01-29 21:42:00,
2013-01-29 15:53:00,66.0,62.0,29.47,NE,44,1.0,-999.0,86,-99.99,,,-99.99,,2013-01-29 21:53:00,
2013-01-29 16:02:00,66.0,62.0,29.47,NE,49,1.0,-999.0,86,-99.99,,,-99.99,,2013-01-29 22:02:00,
2013-01-29 16:12:00,66.0,62.0,29.47,NE,49,1.0,-999.0,86,-99.99,,,-99.99,,2013-01-29 22:12:00,
2013-01-29 16:22:00,66.0,62.0,29.46,ENE,66,2.0,-999.0,87,-99.99,,,-99.99,,2013-01-29 22:22:00,
2013-01-29 16:33:00,66.0,62.0,29.44,NE,41,4.0,-999.0,86,-99.99,,,-99.99,,2013-01-29 22:33:00,
2013-01-29 16:42:00,66.0,62.0,29.44,NE,41,4.0,-999.0,86,-99.99,,,-99.99,,2013-01-29 22:42:00,
2013-01-29 16:53:00,66.0,62.0,29.43,East,86,3.0,-999.0,86,-99.99,,,-99.99,,2013-01-29 22:53:00,
2013-01-29 17:02:00,66.0,62.0,29.42,NNE,24,1.0,-999.0,86,-99.99,,,-99.99,,2013-01-29 23:02:00,
2013-01-29 17:12:00,66.0,62.0,29.42,NNE,24,1.0,-999.0,86,-99.99,,,-99.99,,2013-01-29 23:12:00,
2013-01-29 17:22:00,66.0,61.0,29.41,NE,35,2.0,-999.0,85,-99.99,,,-99.99,,2013-01-29 23:22:00,
2013-01-29 17:32:00,66.0,61.0,29.41,WNW,300,2.0,-999.0,85,-99.99,,,-99.99,,2013-01-29 23:32:00,
2013-01-29 17:42:00,66.0,61.0,29.41,WNW,300,2.0,-999.0,85,-99.99,,,-99.99,,2013-01-29 23:42:00,
2013-01-29 17:53:00,66.0,62.0,29.40,WSW,247,3.0,-999.0,87,-99.99,,,-99.99,,2013-01-29 23:53:00,
2013-01-29 18:02:00,66.0,62.0,29.41,NW,323,2.0,-999.0,87,-99.99,,,-99.99,,2013-01-30 00:02:00,
2013-01-29 18:12:00,66.0,62.0,29.41,NW,323,2.0,-999.0,87,-99.99,,,-99.99,,2013-01-30 00:12:00,
2013-01-29 18:22:00,58.0,53.0,29.47,WSW,246,8.0,-999.0,82,-99.99,,,-99.99,,2013-01-30 00:22:00,
2013-01-29 18:32:00,55.0,52.0,29.49,West,275,4.0,-999.0,90,-99.99,,,-99.99,,2013-01-30 00:32:00,
2013-01-29 18:42:00,55.0,52.0,29.49,West,275,4.0,-999.0,90,-99.99,,,-99.99,,2013-01-30 00:42:00,
2013-01-29 18:53:00,54.0,52.0,29.48,West,264,2.0,-999.0,92,-99.99,,,-99.99,,2013-01-30 00:53:00,
2013-01-29 19:02:00,54.0,52.0,29.48,West,264,2.0,-999.0,92,-99.99,,,-99.99,,2013-01-30 01:02:00,
2013-01-29 19:12:00,54.0,52.0,29.48,West,264,2.0,-999.0,92,-99.99,,,-99.99,,2013-01-30 01:12:00,
2013-01-29 19:22:00,54.0,52.0,29.52,WNW,302,0.0,-999.0,93,-99.99,,,-99.99,,2013-01-30 01:22:00,
2013-01-29 19:32:00,54.0,52.0,29.53,WNW,302,0.0,-999.0,94,-99.99,,,-99.99,,2013-01-30 01:32:00,
2013-01-29 19:43:00,54.0,52.0,29.53,WNW,302,0.0,-999.0,94,-99.99,,,-99.99,,2013-01-30 01:43:00,
2013-01-29 19:52:00,54.0,52.0,29.51,West,264,1.0,-999.0,94,-99.99,,,-99.99,,2013-01-30 01:52:00,
2013-01-29 20:02:00,54.0,52.0,29.51,West,264,0.0,-999.0,94,-99.99,,,-99.99,,2013-01-30 02:02:00,
2013-01-29 20:12:00,54.0,52.0,29.51,West,264,0.0,-999.0,94,-99.99,,,-99.99,,2013-01-30 02:12:00,
2013-01-29 20:22:00,53.0,51.0,29.51,West,264,0.0,-999.0,94,-99.99,,,-99.99,,2013-01-30 02:22:00,
2013-01-29 20:33:00,53.0,51.0,29.50,West,264,0.0,-999.0,94,-99.99,,,-99.99,,2013-01-30 02:33:00,
2013-01-29 20:42:00,53.0,51.0,29.50,West,264,0.0,-999.0,94,-99.99,,,-99.99,,2013-01-30 02:42:00,
2013-01-29 20:53:00,53.0,51.0,29.47,West,264,0.0,-999.0,94,-99.99,,,-99.99,,2013-01-30 02:53:00,
2013-01-29 21:02:00,53.0,51.0,29.49,West,261,0.0,-999.0,94,-99.99,,,-99.99,,2013-01-30 03:02:00,
2013-01-29 21:11:00,53.0,51.0,29.49,West,261,0.0,-999.0,94,-99.99,,,-99.99,,2013-01-30 03:11:00,
2013-01-29 21:22:00,53.0,51.0,29.49,West,261,0.0,-999.0,94,-99.99,,,-99.99,,2013-01-30 03:22:00,
2013-01-29 21:32:00,53.0,51.0,29.48,West,261,0.0,-999.0,94,-99.99,,,-99.99,,2013-01-30 03:32:00,
2013-01-29 21:42:00,53.0,51.0,29.48,West,261,0.0,-999.0,94,-99.99,,,-99.99,,2013-01-30 03:42:00,
2013-01-29 21:52:00,53.0,51.0,29.49,West,262,0.0,-999.0,94,-99.99,,,-99.99,,2013-01-30 03:52:00,
2013-01-29 22:02:00,53.0,51.0,29.50,West,262,0.0,-999.0,94,-99.99,,,-99.99,,2013-01-30 04:02:00,
2013-01-29 22:11:00,53.0,51.0,29.50,West,262,0.0,-999.0,94,-99.99,,,-99.99,,2013-01-30 04:11:00,
2013-01-29 22:22:00,53.0,51.0,29.50,West,262,0.0,-999.0,94,-99.99,,,-99.99,,2013-01-30 04:22:00,
2013-01-29 22:32:00,53.0,51.0,29.50,West,262,0.0,-999.0,94,-99.99,,,-99.99,,2013-01-30 04:32:00,
2013-01-29 22:41:00,53.0,51.0,29.50,West,262,0.0,-999.0,94,-99.99,,,-99.99,,2013-01-30 04:41:00,
2013-01-29 22:52:00,53.0,51.0,29.49,West,262,0.0,-999.0,94,-99.99,,,-99.99,,2013-01-30 04:52:00,
2013-01-29 23:03:00,53.0,52.0,29.49,West,262,0.0,-999.0,95,-99.99,,,-99.99,,2013-01-30 05:03:00,
2013-01-29 23:12:00,53.0,52.0,29.50,West,261,0.0,-999.0,95,-99.99,,,-99.99,,2013-01-30 05:12:00,
2013-01-29 23:22:00,53.0,52.0,29.50,West,261,0.0,-999.0,95,-99.99,,,-99.99,,2013-01-30 05:22:00,
2013-01-29 23:32:00,53.0,52.0,29.51,West,262,0.0,-999.0,95,-99.99,,,-99.99,,2013-01-30 05:32:00,
2013-01-29 23:43:00,53.0,52.0,29.51,West,262,0.0,-999.0,95,-99.99,,,-99.99,,2013-01-30 05:43:00,
2013-01-29 23:52:00,53.0,52.0,29.52,West,261,0.0,-999.0,95,-99.99,,,-99.99,,2013-01-30 05:52:00,